Location: Unspecified
(42.9300°N, 71.1866°W)
Time: 05:41:30
(UTC-05:00)

GENESIS II - Visible Passes

Search period start: 16 January 2017 00:00
Search period end: 26 January 2017 00:00
Orbit: 488 x 548 km, 64.5° (Epoch: 14 January)

Date Brightness Start Highest point End Pass type
(mag) Time Alt. Az. Time Alt. Az. Time Alt. Az.
20 Jan 7.1 05:43:28 10° NNE 05:44:01 10° NNE 05:44:34 10° NE visible
21 Jan 7.1 05:28:19 10° NNE 05:29:10 11° NNE 05:30:01 10° NE visible
22 Jan 7.1 05:13:15 10° NNE 05:14:19 11° NNE 05:15:23 10° NE visible
23 Jan 7.1 04:58:12 10° NNE 04:59:28 11° NE 05:00:43 10° NE visible
23 Jan 4.6 06:33:59 10° NNW 06:38:00 68° NE 06:41:55 10° SE visible
24 Jan 7.1 04:43:13 10° NNE 04:44:37 11° NE 04:46:01 10° NE visible
24 Jan 4.5 06:19:05 10° NNW 06:23:07 72° NE 06:27:02 10° SE visible
25 Jan 7.1 04:28:55 11° NNE 04:29:45 12° NE 04:31:18 10° ENE visible
25 Jan 4.4 06:04:12 10° NNW 06:08:14 75° NE 06:12:09 10° SE visible
